STARLINK-3810

decayed
NORAD ID: 52261 Int'l Des: 2022-041 Owner: SPXS Country: US Constellation: starlink
LEOCIRCULAR
グループ

STARLINK-3810について

説明を読み込み中...

高度履歴

Altitude vs Time

uPlot chart will show altitude changes over time

軌道要素

1 52261U 22041A 24362.72562880 .18530511 12544-4 28744-3 0 9992
2 52261 53.1898 248.2495 0005044 247.5485 219.5101 16.48185526149924
Epoch: Dec 27, 2024 • Age: 6122 hours

現在のステータス

Position data unavailable
打ち上げ日 Apr 21, 2022
運用期間 3.3 years
落下予定日 Dec 27, 2024
タイプ internet

技術仕様

分類 Payload
質量 297.00 kg
乾燥質量 275.00 kg
総質量 297.00 kg
長さ 0.20 m
直径 2.80 m
スパン 9.00 m
形状 Box + pan
製造者 SPXS
バスタイプ Starlink
フェーズステータス Unknown Transfer Status
所有者/国 SPXS/US

大規模コンステレーション

Loading constellations...